Flag for India Weather past 2 weeks in Sivaganga, Tamil Nadu, India

Now
75 °F

Drizzle. More clouds than sun.


Feels Like: 74 °F
Forecast: 76 / 89 °F
Wind: 6 mph from Northeast

Location: Tiruchchirapalli

Current Time: Oct 21, 2014 at 8:42:56 AM

Latest Report: Oct 21, 2014 at 8:10 AM


Visibility: 2 mi

Pressure: 29.95 "Hg

Humidity: 94%

Dew point: 73 °F

Location of SivagangaLocation

Historic Weather in Sivaganga — Graph

°F

Sivaganga temperature yesterday

Maximum temperature yesterday: 81 °F (at 2:40 PM)
Minimum temperature yesterday: 75 °F (at 12:10 AM)
Average temperature yesterday: 77 °F

Past Weeks' High & Low Weather Summary

 TemperatureHumidityPressure
High99 °F (Oct 6, 3:10 PM)100% (Oct 17, 9:40 PM)29.92 "Hg (Oct 17, 9:40 PM)
Low75 °F (Oct 17, 9:40 PM)36% (Oct 6, 5:40 PM)29.62 "Hg (Oct 11, 3:40 PM)
Average84 °F74%29.80 "Hg
* Reported Oct 6 6:40 AM — Oct 21 7:10 AM, Sivaganga, Weather by CustomWeather, © 2014

Note: Actual official high and low records may vary slightly from our data, if they occured in-between our weather recording intervals... More about our weather records

Advertising

Sivaganga weather history for previous 24 hours

 ConditionsComfort  
Time TempWeatherWind HumidityBarometerVisibility
7:10 AM
Oct 21
75 °FDrizzle. More clouds than sun.7 mph89%29.92 "Hg2 mi
6:40 AM75 °FDrizzle. More clouds than sun.7 mph89%29.89 "Hg2 mi
6:10 AM75 °FDrizzle. Mostly cloudy.12 mph89%29.89 "Hg2 mi
5:40 AM75 °FDrizzle. Mostly cloudy.7 mph89%29.86 "Hg2 mi
4:40 AM75 °FMostly cloudy.7 mph94%29.86 "Hg2 mi
4:10 AM75 °FMostly cloudy.7 mph94%29.86 "Hg2 mi
3:40 AM75 °FMostly cloudy.7 mph94%29.86 "Hg2 mi
3:10 AM75 °FMostly cloudy.12 mph94%29.86 "Hg2 mi
2:40 AM75 °FMostly cloudy.12 mph94%29.83 "Hg2 mi
2:10 AM77 °FMostly cloudy.9 mph94%29.86 "Hg2 mi
1:40 AM77 °FMostly cloudy.12 mph94%29.86 "Hg2 mi
1:10 AM77 °FMostly cloudy.9 mph94%29.86 "Hg2 mi
12:40 AM77 °FMostly cloudy.7 mph94%29.86 "Hg2 mi
12:10 AM77 °FMostly cloudy.7 mph94%29.89 "Hg2 mi
11:40 PM
Oct 20
77 °FMostly cloudy.7 mph94%29.89 "Hg2 mi
11:10 PM77 °FMostly cloudy.7 mph94%29.89 "Hg2 mi
10:40 PM77 °FMostly cloudy.7 mph94%29.89 "Hg2 mi
10:10 PM77 °FMostly cloudy.7 mph94%29.89 "Hg2 mi
9:40 PM77 °FMostly cloudy.7 mph94%29.89 "Hg2 mi
9:10 PM77 °FMostly cloudy.7 mph94%29.89 "Hg2 mi
8:40 PM77 °FMostly cloudy.7 mph94%29.89 "Hg2 mi
8:10 PM77 °FMostly cloudy.8 mph94%29.89 "Hg2 mi
7:40 PM77 °FLight rain. Mostly cloudy.10 mph94%29.86 "Hg2 mi
6:40 PM79 °FMostly cloudy.2 mph89%29.83 "Hg2 mi
6:10 PM79 °FMore clouds than sun.2 mph89%29.83 "Hg2 mi
4:40 PM81 °FMore clouds than sun.6 mph79%29.80 "Hg2 mi
4:10 PM81 °FDrizzle. More clouds than sun.7 mph79%29.80 "Hg2 mi
3:40 PM81 °FDrizzle. More clouds than sun.7 mph84%29.80 "Hg2 mi
3:10 PM81 °FDrizzle. More clouds than sun.8 mph79%29.80 "Hg2 mi
2:40 PM81 °FMore clouds than sun.12 mph79%29.80 "Hg2 mi
2:10 PM79 °FMore clouds than sun.9 mph89%29.80 "Hg2 mi
1:40 PM79 °FMore clouds than sun.7 mph89%N/A2 mi
1:10 PM79 °FMore clouds than sun.12 mph89%29.83 "Hg2 mi
12:40 PM79 °FMore clouds than sun.8 mph89%29.86 "Hg2 mi
12:10 PM77 °FDrizzle. More clouds than sun.9 mph94%29.86 "Hg2 mi
11:40 AM77 °FDrizzle. More clouds than sun.10 mph94%29.89 "Hg2 mi
11:10 AM75 °FDrizzle. More clouds than sun.13 mph94%29.89 "Hg2 mi
8:40 AM75 °FLight rain. More clouds than sun.10 mph94%29.89 "Hg1 mi
8:10 AM75 °FLight rain. More clouds than sun.9 mph94%29.89 "Hg1 mi
Weather by CustomWeather, © 2014

See weather overviewHow to use our weather pages